{"data":{"norad_id":63484,"intl_designator":"2025-070AA","name":"STARLINK-33700","alt_names":[],"object_type":"PAYLOAD","status":"ACTIVE","operator":null,"country":"US","launch_date":"2025-04-06","launch_site_code":"AFETR","launch_vehicle":null,"mission":null,"orbit_class":"UNKNOWN","rcs_meters":null,"size_class":null,"mass_kg":null,"dimensions":null,"purposes":["comms"],"wikipedia_slug":null,"has_3d_model":false,"image_url":null,"decayed_at":null,"tle_current":{"epoch":"2026-05-25T03:59:46.592736Z","epoch_age_seconds":50919,"freshness":"FRESH","line1":"1 63484U 25070AA  26145.16651149  .00013064  00000+0  48344-3 0  9999","line2":"2 63484  42.9989 187.7889 0000862 285.5887  74.4870 15.27577577 64671","mean_motion":15.27577577,"eccentricity":8.62e-5,"inclination_deg":42.9989,"raan_deg":187.7889,"arg_perigee_deg":285.5887,"mean_anomaly_deg":74.487,"bstar":0.00048344,"rev_number":6467,"period_min":94.266898236881,"perigee_km":482.46491651602,"apogee_km":483.6477862498,"semimajor_km":6861.1933513829,"source":"CELESTRAK","updated_at":"2026-05-25T13:38:20.010242Z"}}}